Pine River, MN

3:49 PM CDT on September 20, 2017 (GMT -0500)
Pine River Regional

Weather History for KPWC - February, 2014

Change the Weather History Date:

Monday, February 3, 2014

  Actual Average Record
Temperature  
Mean Temperature -2 °F -  
Max Temperature 14 °F 24 °F 46 °F (2005)
Min Temperature -18 °F 4 °F -25 °F (2007)
Degree Days  
Heating Degree Days 67    
Moisture  
Dew Point -10 °F    
Average Humidity 74    
Maximum Humidity 92    
Minimum Humidity 53    
Precipitation  
Precipitation 0.00 in - - ()
Sea Level Pressure  
Sea Level Pressure 30.19 in    
Wind  
Wind Speed 2 mph (NW)    
Max Wind Speed 10 mph    
Max Gust Speed 18 mph    
Visibility 10 miles    
Events      
Averages and records for this station are not official NWS values.
T = Trace of Precipitation, MM = Missing Value Source: NWS Daily Summary

Daily Weather History Graph

Daily Weather History Graph

Search for Another Location

Airport or City:

Trip Planner

Search our weather history database for the weather conditions in past years. The results will help you decide how hot, cold, wet, or windy it might be!

Date:

Astronomy

Feb. 03, 2014 Rise Set
Actual Time 7:39 AM CST 5:24 PM CST
Civil Twilight 7:06 AM CST 5:56 PM CST
Nautical Twilight 6:30 AM CST 6:32 PM CST
Astronomical Twilight 5:55 AM CST 7:08 PM CST
Moon 9:22 AM CST (2/3) 10:36 PM CST (2/3)
Length of Visible Light 10h 49m
Length of Day
9h 45m
Waxing Crescent, 20% of the Moon is Illuminated
Feb 3
Waxing Crescent
Feb 6
First Quarter
Feb 14
Full
Feb 22
Last Quarter
Mar 1
New

Hourly Weather History & Observations

Time (CST) Temp. Windchill Dew Point Humidity Pressure Visibility Wind Dir Wind Speed Gust Speed Precip Events Conditions
12:13 AM -11.2 °F - -16.6 °F 77% 30.10 in 10.0 mi Calm Calm - N/A   Clear
12:33 AM -11.2 °F - -16.6 °F 77% 30.11 in 10.0 mi Calm Calm - N/A   Clear
12:52 AM -14.8 °F - -18.4 °F 84% 30.10 in 10.0 mi Calm Calm - N/A   Clear
1:13 AM -13.0 °F - -16.6 °F 84% 30.10 in 10.0 mi Calm Calm - N/A   Clear
1:32 AM -16.6 °F - -20.2 °F 84% 30.10 in 10.0 mi Calm Calm - N/A   Clear
1:53 AM -14.8 °F - -18.4 °F 84% 30.11 in 10.0 mi Calm Calm - N/A   Clear
2:12 AM -14.8 °F - -16.6 °F 92% 30.11 in 10.0 mi Calm Calm - N/A   Clear
2:32 AM -16.6 °F - -20.2 °F 84% 30.11 in 10.0 mi Calm Calm - N/A   Clear
2:53 AM -16.6 °F - -20.2 °F 84% 30.12 in 10.0 mi Calm Calm - N/A   Clear
3:12 AM -16.6 °F - -20.2 °F 84% 30.12 in 10.0 mi Calm Calm - N/A   Clear
3:33 AM -18.4 °F - -22.0 °F 84% 30.12 in 10.0 mi Calm Calm - N/A   Clear
3:53 AM -16.6 °F - -20.2 °F 84% 30.12 in 10.0 mi Calm Calm - N/A   Clear
4:13 AM -16.6 °F - -20.2 °F 84% 30.12 in 7.0 mi Calm Calm - N/A   Clear
4:33 AM -18.4 °F - -23.8 °F 76% 30.13 in 10.0 mi Calm Calm - N/A   Clear
4:53 AM -16.6 °F - -22.0 °F 76% 30.13 in 10.0 mi Calm Calm - N/A   Clear
5:12 AM -18.4 °F - -23.8 °F 76% 30.13 in 10.0 mi Calm Calm - N/A   Clear
5:33 AM -18.4 °F - -23.8 °F 76% 30.13 in 7.0 mi Calm Calm - N/A   Clear
5:53 AM -18.4 °F - -23.8 °F 76% 30.14 in 10.0 mi Calm Calm - N/A   Clear
6:13 AM -18.4 °F - -23.8 °F 76% 30.13 in 10.0 mi Calm Calm - N/A   Clear
6:33 AM -18.4 °F - -23.8 °F 76% 30.14 in 10.0 mi Calm Calm - N/A   Clear
6:53 AM -18.4 °F - -23.8 °F 76% 30.13 in 10.0 mi Calm Calm - N/A   Clear
7:13 AM -18.4 °F - -23.8 °F 76% 30.14 in 10.0 mi Calm Calm - N/A   Clear
7:33 AM -18.4 °F - -23.8 °F 76% 30.14 in 10.0 mi Calm Calm - N/A   Scattered Clouds
7:53 AM -16.6 °F - -20.2 °F 84% 30.15 in 10.0 mi Calm Calm - N/A   Overcast
8:13 AM -14.8 °F - -18.4 °F 84% 30.15 in 10.0 mi Calm Calm - N/A   Overcast
8:32 AM -14.8 °F - -18.4 °F 84% 30.16 in 10.0 mi Calm Calm - N/A   Overcast
8:53 AM -13.0 °F - -16.6 °F 84% 30.17 in 10.0 mi Calm Calm - N/A   Mostly Cloudy
9:12 AM -11.2 °F - -14.8 °F 84% 30.17 in 7.0 mi Calm Calm - N/A   Overcast
9:32 AM -9.4 °F - -13.0 °F 84% 30.17 in 10.0 mi Calm Calm - N/A   Overcast
9:53 AM -4.0 °F - -7.6 °F 85% 30.18 in 7.0 mi Calm Calm - N/A   Scattered Clouds
10:13 AM 6.8 °F -3.5 °F 3.2 °F 85% 30.18 in 10.0 mi NW 5.8 mph - N/A   Clear
10:33 AM 8.6 °F -3.7 °F 3.2 °F 79% 30.18 in 10.0 mi NW 8.1 mph - N/A   Clear
10:52 AM 8.6 °F -5.5 °F -0.4 °F 67% 30.18 in 10.0 mi WNW 10.4 mph - N/A   Clear
11:12 AM 10.4 °F -1.5 °F -0.4 °F 62% 30.19 in 10.0 mi NW 8.1 mph - N/A   Clear
11:33 AM 10.4 °F -2.4 °F -0.4 °F 62% 30.19 in 10.0 mi WNW 9.2 mph - N/A   Clear
11:52 AM 10.4 °F -3.3 °F -0.4 °F 62% 30.19 in 10.0 mi NW 10.4 mph 18.4 mph N/A   Scattered Clouds
12:13 PM 10.4 °F -3.3 °F -0.4 °F 62% 30.18 in 10.0 mi NW 10.4 mph - N/A   Clear
12:32 PM 10.4 °F -2.4 °F -0.4 °F 62% 30.18 in 10.0 mi NW 9.2 mph 18.4 mph N/A   Clear
12:52 PM 10.4 °F 0.8 °F -0.4 °F 62% 30.18 in 10.0 mi WNW 5.8 mph - N/A   Clear
1:13 PM 10.4 °F -1.5 °F -0.4 °F 62% 30.19 in 10.0 mi NW 8.1 mph - N/A   Clear
1:31 PM 12.2 °F 1.7 °F -0.4 °F 57% 30.18 in 10.0 mi WNW 6.9 mph - N/A   Clear
1:53 PM 14.0 °F 2.0 °F 1.4 °F 57% 30.18 in 10.0 mi NW 9.2 mph - N/A   Clear
2:12 PM 14.0 °F 2.9 °F -0.4 °F 53% 30.19 in 10.0 mi NW 8.1 mph - N/A   Clear
2:33 PM 12.2 °F 1.7 °F -0.4 °F 57% 30.19 in 10.0 mi West 6.9 mph - N/A   Clear
2:53 PM 14.0 °F 2.9 °F -0.4 °F 53% 30.19 in 10.0 mi NNW 8.1 mph - N/A   Clear
3:13 PM 14.0 °F 2.9 °F -0.4 °F 53% 30.20 in 10.0 mi NW 8.1 mph - N/A   Clear
3:32 PM 14.0 °F 2.9 °F -0.4 °F 53% 30.20 in 10.0 mi WNW 8.1 mph - N/A   Clear
3:52 PM 14.0 °F 3.9 °F -0.4 °F 53% 30.21 in 10.0 mi WNW 6.9 mph - N/A   Clear
4:13 PM 14.0 °F 3.9 °F -0.4 °F 53% 30.21 in 10.0 mi NW 6.9 mph - N/A   Clear
4:33 PM 14.0 °F 3.9 °F -0.4 °F 53% 30.22 in 10.0 mi NW 6.9 mph - N/A   Clear
4:53 PM 12.2 °F 2.9 °F -0.4 °F 57% 30.22 in 10.0 mi NW 5.8 mph - N/A   Clear
5:12 PM 12.2 °F 4.3 °F -0.4 °F 57% 30.23 in 10.0 mi NW 4.6 mph - N/A   Clear
5:31 PM 10.4 °F 2.2 °F -0.4 °F 62% 30.24 in - West 4.6 mph - N/A   Clear
5:53 PM 10.4 °F 4.0 °F -0.4 °F 62% 30.25 in 10.0 mi West 3.5 mph - N/A   Clear
6:13 PM 8.6 °F - -0.4 °F 67% 30.26 in 10.0 mi Calm Calm - N/A   Clear
6:33 PM 6.8 °F - -2.2 °F 67% 30.26 in 10.0 mi Calm Calm - N/A   Clear
6:52 PM 3.2 °F - -2.2 °F 78% 30.26 in 10.0 mi Calm Calm - N/A   Clear
7:13 PM 1.4 °F - -5.8 °F 72% 30.26 in 10.0 mi Calm Calm - N/A   Mostly Cloudy
7:33 PM -0.4 °F - -5.8 °F 78% 30.26 in 10.0 mi Calm Calm - N/A   Overcast
7:52 PM -0.4 °F - -5.8 °F 78% 30.26 in 10.0 mi Calm Calm - N/A   Overcast
8:13 PM -2.2 °F - -7.6 °F 78% 30.26 in 10.0 mi Calm Calm - N/A   Overcast
8:33 PM -2.2 °F - -7.6 °F 78% 30.27 in 10.0 mi Calm Calm - N/A   Overcast
8:52 PM -2.2 °F - -5.8 °F 85% 30.28 in 10.0 mi Calm Calm - N/A   Overcast
9:13 PM -2.2 °F - -5.8 °F 85% 30.28 in 10.0 mi Calm Calm - N/A   Overcast
9:33 PM -0.4 °F - -5.8 °F 78% 30.28 in 10.0 mi Calm Calm - N/A   Overcast
9:52 PM -0.4 °F - -5.8 °F 78% 30.29 in 10.0 mi Calm Calm - N/A   Overcast
10:12 PM -0.4 °F - -5.8 °F 78% 30.29 in 10.0 mi Calm Calm - N/A   Mostly Cloudy
10:32 PM -2.2 °F - -7.6 °F 78% 30.30 in 10.0 mi Calm Calm - N/A   Scattered Clouds
10:53 PM -5.8 °F - -9.4 °F 84% 30.30 in 7.0 mi Calm Calm - N/A   Clear
11:12 PM -5.8 °F - -9.4 °F 84% 30.31 in 10.0 mi Calm Calm - N/A   Clear
11:32 PM -5.8 °F - -9.4 °F 84% 30.31 in 7.0 mi Calm Calm - N/A   Scattered Clouds
11:52 PM -7.6 °F - -11.2 °F 84% 30.32 in 10.0 mi Calm Calm - N/A   Scattered Clouds